Air Quality Table

TIMESTAMP NO2 SO2 PM10 PM2.5 CO TEMP HUM AIRPRES WS WD NO
2022-01-24 17:00 11.06 µg/m3 0.35 µg/m3 9.17 µg/m3 3.41 µg/m3 0.34 mg/m3 11.98 °C 69.3 % 1,021.70 mbar 1.67 m/s 254.98 Deg 2.27 µg/m3
2022-01-24 16:00 4.92 µg/m3 0.21 µg/m3 8.92 µg/m3 3.09 µg/m3 0.27 mg/m3 12.2 °C 65.95 % 1,021.67 mbar 2.55 m/s 262.88 Deg 1.13 µg/m3
2022-01-24 15:00 8.01 µg/m3 0.25 µg/m3 9.05 µg/m3 3.06 µg/m3 0.25 mg/m3 12.51 °C 62.04 % 1,021.52 mbar 2.46 m/s 309.87 Deg 2.23 µg/m3
2022-01-24 14:00 2.9 µg/m3 0.2 µg/m3 9.46 µg/m3 3.17 µg/m3 0.27 mg/m3 12.63 °C 65.67 % 1,021.74 mbar 2.07 m/s 262.19 Deg 1.06 µg/m3
2022-01-24 13:00 3.93 µg/m3 0.29 µg/m3 9.2 µg/m3 3.05 µg/m3 0.26 mg/m3 13.15 °C 58.29 % 1,022.40 mbar 2.33 m/s 336.63 Deg 1.35 µg/m3
2022-01-24 12:00 6.49 µg/m3 0.28 µg/m3 9.69 µg/m3 3.16 µg/m3 0.25 mg/m3 12.98 °C 58.2 % 1,023.07 mbar 2.23 m/s 336.31 Deg 1.51 µg/m3
2022-01-24 11:00 4.53 µg/m3 0.32 µg/m3 9.8 µg/m3 3.2 µg/m3 0.24 mg/m3 12.74 °C 59.87 % 1,023.45 mbar 2.07 m/s 82 Deg 1.01 µg/m3
2022-01-24 10:00 22.35 µg/m3 0.51 µg/m3 10.85 µg/m3 3.49 µg/m3 0.25 mg/m3 12.25 °C 57.03 % 1,023.33 mbar 2.04 m/s 292.53 Deg 8.01 µg/m3
2022-01-24 09:00 42.11 µg/m3 0.7 µg/m3 10.76 µg/m3 3.71 µg/m3 0.24 mg/m3 11.88 °C 54.92 % 1,023.07 mbar 1.75 m/s 287.49 Deg 13.8 µg/m3
2022-01-24 08:00 33.43 µg/m3 0.69 µg/m3 9.98 µg/m3 3.45 µg/m3 0.26 mg/m3 11.41 °C 56.29 % 1,022.92 mbar 1.4 m/s 297.08 Deg 10.26 µg/m3
2022-01-24 07:00 38.87 µg/m3 0.91 µg/m3 10.47 µg/m3 3.92 µg/m3 0.39 mg/m3 11.13 °C 62.02 % 1,022.76 mbar 1.26 m/s 318.98 Deg 13.55 µg/m3
2022-01-24 06:00 19.73 µg/m3 0.9 µg/m3 9.32 µg/m3 3.3 µg/m3 0.2 mg/m3 11.5 °C 52.88 % 1,022.70 mbar 1.01 m/s 280.27 Deg 6.56 µg/m3
2022-01-24 05:00 12.13 µg/m3 0.84 µg/m3 9.04 µg/m3 3.23 µg/m3 0.14 mg/m3 11.67 °C 53.21 % 1,022.93 mbar 0.91 m/s 249.73 Deg 2.86 µg/m3
2022-01-24 04:00 19.7 µg/m3 0.79 µg/m3 8.71 µg/m3 3.15 µg/m3 0.2 mg/m3 11.57 °C 55.69 % 1,023.20 mbar 1.15 m/s 178.46 Deg 0.91 µg/m3
2022-01-24 03:00 14.31 µg/m3 0.76 µg/m3 8.7 µg/m3 3.06 µg/m3 0.19 mg/m3 11.57 °C 54.04 % 1,023.54 mbar 1.04 m/s 289.67 Deg 0.6 µg/m3
2022-01-24 02:00 23.78 µg/m3 0.48 µg/m3 8.82 µg/m3 3.16 µg/m3 0.21 mg/m3 11.56 °C 60.87 % 1,023.72 mbar 0.96 m/s 296.87 Deg 1.23 µg/m3
2022-01-24 01:00 18.98 µg/m3 0.36 µg/m3 8.89 µg/m3 3.26 µg/m3 0.23 mg/m3 11.64 °C 64.06 % 1,023.83 mbar 0.82 m/s 267.07 Deg 0.5 µg/m3
2022-01-24 00:00 20.37 µg/m3 0.34 µg/m3 9.18 µg/m3 3.43 µg/m3 0.25 mg/m3 11.94 °C 62.97 % 1,023.98 mbar 0.96 m/s 241.79 Deg 0.4 µg/m3
2022-01-23 23:00 42.5 µg/m3 0.27 µg/m3 12.13 µg/m3 5.52 µg/m3 0.35 mg/m3 11.65 °C 62.88 % 1,023.86 mbar 1.83 m/s 204.06 Deg 1.64 µg/m3
2022-01-23 22:00 39.03 µg/m3 0.26 µg/m3 11.83 µg/m3 5.44 µg/m3 0.35 mg/m3 11.6 °C 62.79 % 1,023.98 mbar 2.48 m/s 200.18 Deg 1.61 µg/m3
2022-01-23 21:00 33.3 µg/m3 0.22 µg/m3 12.01 µg/m3 5.34 µg/m3 0.35 mg/m3 11.71 °C 61.94 % 1,024.08 mbar 2.44 m/s 198.01 Deg 0.49 µg/m3
2022-01-23 20:00 34.48 µg/m3 0.3 µg/m3 11.86 µg/m3 5.07 µg/m3 0.35 mg/m3 11.86 °C 58.27 % 1,024.16 mbar 2.72 m/s 206.92 Deg 6.38 µg/m3
2022-01-23 19:00 22.33 µg/m3 0.23 µg/m3 9.82 µg/m3 3.78 µg/m3 0.31 mg/m3 12.22 °C 55.91 % 1,024.18 mbar 2.52 m/s 233.73 Deg 2.22 µg/m3
2022-01-23 18:00 10.41 µg/m3 0.22 µg/m3 9.35 µg/m3 3.3 µg/m3 0.3 mg/m3 12.65 °C 55.27 % 1,023.88 mbar 2 m/s 302.18 Deg 1.5 µg/m3
2022-01-23 17:00 5.72 µg/m3 0.21 µg/m3 9.04 µg/m3 3.14 µg/m3 0.25 mg/m3 12.84 °C 56.42 % 1,023.95 mbar 1.88 m/s 312.64 Deg 0.51 µg/m3
2022-01-23 16:00 3.92 µg/m3 0.23 µg/m3 8.26 µg/m3 2.77 µg/m3 0.24 mg/m3 12.94 °C 54.86 % 1,024.13 mbar 2.45 m/s 295.5 Deg 0.93 µg/m3
2022-01-23 15:00 3.45 µg/m3 0.26 µg/m3 8.35 µg/m3 2.76 µg/m3 0.24 mg/m3 12.9 °C 53.73 % 1,024.31 mbar 2.62 m/s 307.98 Deg 1.14 µg/m3
2022-01-23 14:00 2.83 µg/m3 0.32 µg/m3 8.08 µg/m3 2.59 µg/m3 0.21 mg/m3 13.1 °C 44.97 % 1,024.80 mbar 1.91 m/s 296.38 Deg 0.9 µg/m3
2022-01-23 13:00 5.71 µg/m3 0.6 µg/m3 8.11 µg/m3 2.53 µg/m3 0.21 mg/m3 13.21 °C 41.8 % 1,025.54 mbar 1.45 m/s 334.88 Deg 1.73 µg/m3
2022-01-23 12:00 8.28 µg/m3 0.98 µg/m3 8.84 µg/m3 2.9 µg/m3 0.21 mg/m3 12.98 °C 47.88 % 1,026.11 mbar 1.09 m/s 131.53 Deg 2.68 µg/m3
2022-01-23 11:00 6.07 µg/m3 1.07 µg/m3 8.72 µg/m3 2.87 µg/m3 0.25 mg/m3 12.24 °C 55.96 % 1,026.05 mbar 1.01 m/s 174.1 Deg 1.34 µg/m3
2022-01-23 10:00 9.28 µg/m3 1.04 µg/m3 8.59 µg/m3 2.94 µg/m3 0.25 mg/m3 11.89 °C 60.36 % 1,025.50 mbar 1.61 m/s 195.81 Deg 2.06 µg/m3
2022-01-23 09:00 8.55 µg/m3 0.59 µg/m3 8.37 µg/m3 2.84 µg/m3 0.21 mg/m3 11.82 °C 55.87 % 1,024.96 mbar 1.39 m/s 257.73 Deg 2.59 µg/m3
2022-01-23 08:00 14.97 µg/m3 0.5 µg/m3 8.44 µg/m3 2.85 µg/m3 0.19 mg/m3 11.59 °C 61.75 % 1,024.38 mbar 1.33 m/s 279.31 Deg 3.56 µg/m3
2022-01-23 07:00 9.75 µg/m3 0.49 µg/m3 8.09 µg/m3 2.65 µg/m3 0.16 mg/m3 11.43 °C 60.74 % 1,023.84 mbar 1.37 m/s 230.33 Deg 1.19 µg/m3
2022-01-23 06:00 10 µg/m3 0.48 µg/m3 8.17 µg/m3 2.72 µg/m3 0.17 mg/m3 11.57 °C 60.17 % 1,023.30 mbar 1.56 m/s 311.24 Deg 0.46 µg/m3
2022-01-23 05:00 12.29 µg/m3 0.41 µg/m3 8.47 µg/m3 2.95 µg/m3 0.13 mg/m3 11.65 °C 63.59 % 1,023.16 mbar 1.25 m/s 279.99 Deg 0.79 µg/m3
2022-01-23 04:00 28.18 µg/m3 0.41 µg/m3 9.09 µg/m3 3.36 µg/m3 0.2 mg/m3 11.37 °C 72.4 % 1,023.31 mbar 0.78 m/s 221.56 Deg 2.85 µg/m3
2022-01-23 03:00 38.34 µg/m3 0.36 µg/m3 8.96 µg/m3 3.37 µg/m3 0.21 mg/m3 10.85 °C 76.16 % 1,023.60 mbar 0.86 m/s 218.7 Deg 3.99 µg/m3
2022-01-23 02:00 6.7 µg/m3 0.26 µg/m3 8.73 µg/m3 3.23 µg/m3 0.22 mg/m3 10.11 °C 87.35 % 1,023.57 mbar 1.7 m/s 274.18 Deg 0.22 µg/m3
2022-01-23 01:00 23.83 µg/m3 0.49 µg/m3 13.48 µg/m3 6.68 µg/m3 0.36 mg/m3 10.09 °C 90.99 % 1,022.95 mbar 3.36 m/s 298.11 Deg 13.65 µg/m3
2022-01-23 00:00 53.57 µg/m3 0.93 µg/m3 25.21 µg/m3 14.99 µg/m3 0.68 mg/m3 9.64 °C 91.24 % 1,022.87 mbar 1.44 m/s 195.52 Deg 48.82 µg/m3
2022-01-22 23:00 52.4 µg/m3 0.88 µg/m3 24.74 µg/m3 14.69 µg/m3 0.74 mg/m3 9.52 °C 91.42 % 1,022.52 mbar 2.21 m/s 207.76 Deg 46.89 µg/m3
2022-01-22 22:00 60.09 µg/m3 0.83 µg/m3 26.27 µg/m3 15.14 µg/m3 0.74 mg/m3 10.32 °C 89.46 % 1,022.37 mbar 1.43 m/s 199.98 Deg 42.73 µg/m3
2022-01-22 21:00 66.72 µg/m3 0.63 µg/m3 18.98 µg/m3 10.17 µg/m3 0.63 mg/m3 11.17 °C 86.49 % 1,022.08 mbar 1.02 m/s 204.9 Deg 24.04 µg/m3
2022-01-22 20:00 59.63 µg/m3 0.43 µg/m3 12.56 µg/m3 5.85 µg/m3 0.46 mg/m3 11.86 °C 83.21 % 1,021.79 mbar 0.58 m/s 226.48 Deg 14.74 µg/m3
2022-01-22 19:00 34.32 µg/m3 0.45 µg/m3 13.19 µg/m3 6.05 µg/m3 0.36 mg/m3 11.97 °C 82.98 % 1,021.42 mbar 0.4 m/s 285.23 Deg 5.77 µg/m3

It is to be noted that the data is provisional and subject to quality assurance procedures. For validated data kindly refer your request to contact.air@era.org.mt